#timestamp,LO_Frequency,Hit,StdDev 
1510149615.8,286046993.9,N
1510149635.6,286046989.2,N
1510149655.4,286046988.2,N
1510149675.3,286046989.4,N
1510149695.1,286046990.4,N
1510149715.9,286046992.5,N
1510149735.7,286046989.6,N
1510149755.5,286046982.7,N
1510149775.4,286046984.5,N
1510149795.2,286046989.5,N
1510149815.1,286046982.1,N
1510149816.0,286046982.1,N
1510149835.8,286046985.8,N
1510149855.7,286046986.4,N
1510149875.5,286046982.7,N
1510149895.3,286046982.8,N
1510149915.2,286046984.6,N
1510149935.0,286046981.6,N
1510149935.9,286046981.6,N
1510149955.8,286046980.9,N
1510149975.6,286046977.8,N
1510149995.4,286046980.4,N
1510150015.3,286046979.6,N
1510150035.1,286046978.8,N
1510150055.9,286046972.7,N
1510150075.7,286046974.9,N
1510150095.5,286046973.5,N
1510150115.4,286046978.3,N
1510150135.2,286046980.8,N
1510150155.1,286046977.3,Y
1510150156.0,286046977.3,P
1510150175.8,286046997.8,N
1510150195.7,286046999.5,N
1510150215.5,286047000.3,N
1510150235.3,286046996.5,N
1510150255.2,286047003.2,N
1510150275.0,286047006.2,N
1510150275.9,286047006.2,N
1510150295.8,286047007.6,N
1510150315.6,286047016.6,N
1510150335.4,286047012.9,N
1510150355.3,286047013.0,N
1510150375.1,286047009.8,N
1510150395.9,286047008.7,N
1510150415.7,286047010.8,N
1510150435.5,286047008.9,N
1510150455.4,286047005.9,N
1510150475.2,286047000.1,N
1510150495.1,286047001.8,N
1510150496.0,286047001.8,N
1510150515.8,286047002.3,N
1510150535.7,286047009.2,N
1510150555.5,286047009.1,N
1510150575.3,286047006.4,N
1510150595.2,286047009.7,N
1510150615.0,286047012.7,N
1510150615.9,286047012.7,N
1510150635.8,286047018.3,N
1510150655.6,286047021.3,N
1510150675.5,286047027.8,Y
1510150695.3,286047027.7,P
1510150715.1,286047030.8,N
1510150735.9,286047037.6,P
1510150755.7,286047034.1,N
1510150775.6,286047026.8,N
1510150795.4,286047020.0,N
1510150815.2,286047014.7,N
1510150835.1,286047019.3,N
1510150836.0,286047019.3,N
1510150855.8,286047020.3,N
1510150875.7,286047020.5,N
1510150895.5,286047022.2,N
1510150915.4,286047033.1,Y
1510150935.2,286047016.5,P
1510150955.0,286047015.4,P
1510150956.0,286047015.4,P
1510150975.8,286047006.4,N
1510150995.6,286046998.5,N
1510151015.5,286046993.3,N
1510151035.3,286046991.2,N
1510151055.1,286046984.1,N
1510151075.9,286046982.3,N
1510151095.7,286046983.9,N
1510151115.6,286046994.1,N
1510151135.4,286046999.2,N
1510151155.3,286047002.2,N
1510151175.1,286047007.4,N
1510151195.8,286047007.2,N
1510151215.7,286047008.9,N
1510151235.5,286047012.6,N
1510151255.4,286047016.3,N
1510151275.2,286047015.5,N
1510151295.0,286047008.4,N
1510151296.0,286047008.4,N
1510151315.8,286047005.6,N
1510151335.6,286046998.3,N
1510151355.5,286047001.5,N
1510151375.3,286047002.7,N
1510151395.1,286047007.4,N
1510151415.9,286047008.8,N
1510151435.7,286047003.5,N
1510151455.6,286047003.2,N
1510151475.4,286047006.3,N
1510151495.2,286047007.8,N
1510151515.1,286047015.2,N
1510151516.0,286047015.2,N
1510151535.8,286047011.4,N
1510151555.7,286047009.2,N
1510151575.5,286047007.8,N
1510151595.4,286047002.9,N
1510151615.2,286047002.8,N
1510151635.0,286047005.2,N
1510151635.9,286047005.2,N
1510151655.8,286047007.9,N
1510151675.6,286047012.5,N
1510151695.5,286047020.4,Y
1510151715.3,286047017.2,P
1510151735.1,286047022.0,P
1510151755.9,286047020.1,P
1510151775.7,286047020.8,Y
1510151795.6,286046995.1,P
1510151815.4,286046989.4,N
1510151835.3,286046984.2,N
1510151855.1,286046980.3,N
1510151875.8,286046976.7,N
1510151895.7,286046975.1,N
1510151915.5,286046975.6,N
1510151935.4,286046970.0,N
1510151955.2,286046967.6,N
1510151975.0,286046963.9,N
1510151976.0,286046963.9,N
1510151995.8,286046962.2,N
1510152015.6,286046959.8,N
1510152035.5,286046962.7,N
1510152055.3,286046965.8,N
1510152075.2,286046965.6,N
1510152095.9,286046974.3,N
1510152115.7,286046979.0,N
1510152135.6,286046981.4,N
1510152155.4,286046979.1,N
1510152175.3,286046977.9,N
1510152195.1,286046968.3,N
1510152215.8,286046964.1,N
1510152235.7,286046956.5,Y
1510152255.5,286046982.4,P
1510152275.4,286046992.7,N
1510152295.2,286046995.6,N
1510152315.0,286046999.1,N
1510152316.0,286046999.1,N
1510152335.8,286046997.4,N
1510152355.6,286046990.3,N
1510152375.5,286046987.4,N
1510152395.3,286046985.2,N
1510152415.2,286046987.4,N
1510152435.9,286046985.7,N
1510152455.7,286046984.0,N
1510152475.6,286046986.0,N
1510152495.4,286046988.6,N
1510152515.3,286046993.5,N
1510152535.1,286046995.6,N
1510152555.8,286046996.2,N
1510152575.7,286046994.7,N
1510152595.5,286046987.5,N
1510152615.4,286046987.9,N
1510152635.2,286046989.8,N
1510152655.0,286046993.0,N
1510152656.0,286046993.0,N
1510152675.8,286046996.5,N
1510152695.6,286046999.8,N
1510152715.5,286047001.6,N
1510152735.3,286046999.5,N
1510152755.2,286046994.6,N
1510152775.9,286046987.7,N
1510152795.7,286046984.2,N
1510152815.6,286046991.4,N
1510152835.4,286046992.0,N
1510152855.3,286047001.2,N
1510152875.1,286047001.1,N
1510152895.8,286046995.2,N
1510152915.7,286046992.3,N
1510152935.5,286046994.0,N
1510152955.4,286046992.5,N
1510152975.2,286046995.7,N
1510152995.0,286046993.2,N
1510152996.0,286046993.2,N
1510153015.8,286046988.0,N
1510153035.6,286046981.1,Y
1510153055.5,286046985.7,P
1510153075.3,286046987.7,P
1510153095.2,286046987.7,P
1510153115.9,286046980.5,Y
1510153135.7,286046992.2,P
1510153155.6,286046992.9,P
1510153175.4,286046989.1,P
1510153195.3,286046992.9,Y
